Weather Roundup
Issued by NWS Chicago, IL

Home | Current Version | Previous Version | Text Only | Print | Product List | Glossary On
Versions: 1 2 3 4 5 6 7 8 9 10 11 12 13 14 15 16 17 18 19 20 21 22 23 24 25 26 27 28 29 30 31 32 33 34 35 36 37 38 39 40 41 42 43 44 45 46 47 48 49 50
000
NZUS59 KLOT 291210
HRRLOT

CHICAGO AREA WEATHER ROUNDUP
NATIONAL WEATHER SERVICE CHICAGO/ROMEOVILLE IL
700 AM CDT TUE JUL 29 2014

NOTE: "FAIR" INDICATES FEW OR NO CLOUDS BELOW 12,000 FEET WITH NO
SIGNIFICANT WEATHER AND/OR OBSTRUCTIONS TO VISIBILITY.

* THESE STATIONS ARE NOT UNDER NWS QUALITY CONTROL. THEY ALSO MAY NOT
  REPORT WEATHER SUCH AS PRECIPITATION OR FOG.

ILZ005-006-012>014-019>023-291300-
NORTHEAST ILLINOIS

CITY           SKY/WX    TMP DP  RH WIND       PRES   REMARKS
OHARE          MOSUNNY   62  51  67 W8        30.04R
6HR MIN TEMP:  58; 6HR MAX TEMP:  65;

MIDWAY         MOSUNNY   62  55  77 SW5       30.05R
6HR MIN TEMP:  60; 6HR MAX TEMP:  65;

AURORA         SUNNY     55  52  89 W6        30.07R
6HR MIN TEMP:  52; 6HR MAX TEMP:  58;

LANSING*       SUNNY     54  52  92 CALM      30.06R
JOLIET*        SUNNY     58  52  80 CALM      30.08R
WAUKEGAN       PTSUNNY   61  54  77 W5        30.03R
6HR MIN TEMP:  53; 6HR MAX TEMP:  61;

DUPAGE AIRPORT SUNNY     60  53  77 W3        30.05R
6HR MIN TEMP:  55; 6HR MAX TEMP:  63;

WHEELING       PTSUNNY   63  54  72 NW5       30.05S
6HR MIN TEMP:  58; 6HR MAX TEMP:  63;

KANKAKEE*      SUNNY     55  53  94 W3        30.08R
MORRIS*        PTSUNNY   57  55  91 W5        30.07R
LEWIS AIRPORT* SUNNY     58  54  87 W5        30.07R
NORTHERLY IS     N/A     63  54  72 W5          N/A
$$

WIZ051-052-058>065-066-070>072-291300-
SOUTHEAST WISCONSIN

CITY           SKY/WX    TMP DP  RH WIND       PRES   REMARKS
MILWAUKEE      MOSUNNY   62  54  74 NW7       30.03R
6HR MIN TEMP:  59; 6HR MAX TEMP:  64;

KENOSHA*       SUNNY     59  54  83 W7        30.04R
RACINE*        SUNNY     61  54  77 W6        30.04R
BURLINGTON     SUNNY     55  53  94 CALM      30.04R
WAUKESHA       MOSUNNY   57  54  88 W7        30.04R
WEST BEND      SUNNY     59  52  77 NW6       30.03R
$$

INZ001>003-010>013-019-020-291300-
NORTHWEST INDIANA

CITY           SKY/WX    TMP DP  RH WIND       PRES   REMARKS
GARY*          MOSUNNY   57  54  88 SW5       30.06
MICHIGAN CITY* NOT AVBL
RENSSELAER*    NOT AVBL
VALPARAISO     MOSUNNY   54  51  90 SW5       30.06R
$$

LMZ740>746-291300-
SOUTHERN LAKE MICHIGAN

STATION/POSITION TIME  SKY/WX   TEMP WIND        PRES    VSBY
                                AIR  DIR/SP/G
                 (UTC)          (F)  (DEG/KT/KT) (MB)    (MI)
HARRISON CRIB    1200            63  270/  9/ 10   N/A
BURNHAM HARBOR   1200            63  250/  8       N/A
CALUMET HARBOR   1200            60  210/  3/  5 1016.1S
BURNS HARBOR     NOT AVBL
MICHIGAN CITY    1200            58  190/  9/ 10   N/A
$$

ABBREVIATIONS USED IN REMARKS
   TC - TEMPERATURE IN CELSIUS
  WCI - WIND CHILL INDEX
   HX - HEAT INDEX
  VSB - VISIBILITY
$$


USA.gov is the U.S. government's official web portal to all federal, state and local government web resources and services.